FW0697 Weather Reports


time (UTC)temp
C
wind
direction
speed
KPH
gust
KPH
rain 1hr
cm
rain 24hr
cm
rain mn
cm
humidity
%
barometer
mb
20260504003504 17 0 0.0 0.0 0.00 0.00 0.00 47 1012.0
20260504003005 17 0 0.0 0.0 0.00 0.00 0.00 46 1012.0
20260504002504 17 251 0.0 6.4 0.00 0.00 0.00 46 1012.0
20260504002005 17 251 1.6 6.4 0.00 0.00 0.00 46 1011.8
20260504001505 17 241 1.6 11.3 0.00 0.00 0.00 46 1011.8
20260504001004 17 228 1.6 11.3 0.00 0.00 0.00 45 1011.9
20260504000004 17 221 3.2 16.1 0.00 0.00 0.00 45 1011.8
20260503235005 18 202 3.2 16.1 0.00 0.00 0.00 45 1011.7
20260503234504 18 212 4.8 22.5 0.00 0.00 0.00 45 1011.8
20260503234005 18 216 4.8 22.5 0.00 0.00 0.00 45 1011.9
20260503233504 18 214 6.4 20.9 0.00 0.00 0.00 44 1011.9
20260503232504 18 218 3.2 17.7 0.00 0.00 0.00 44 1011.7
20260503232005 18 206 3.2 14.5 0.00 0.00 0.00 44 1011.8
20260503231504 18 214 6.4 20.9 0.00 0.00 0.00 43 1011.8
20260503231005 18 216 6.4 20.9 0.00 0.00 0.00 43 1011.8
20260503230505 18 203 4.8 20.9 0.00 0.00 0.00 42 1011.9
20260503230005 19 213 6.4 20.9 0.00 0.00 0.00 42 1012.1
20260503225504 19 220 8.0 20.9 0.00 0.00 0.00 41 1012.3
20260503225005 19 221 9.7 22.5 0.00 0.00 0.00 41 1012.4
20260503224005 18 216 6.4 20.9 0.00 0.00 0.00 41 1012.6
20260503223504 18 212 6.4 24.1 0.00 0.00 0.00 40 1012.7
20260503223004 19 215 4.8 24.1 0.00 0.00 0.00 40 1012.8
20260503222504 19 226 6.4 22.5 0.00 0.00 0.00 40 1012.8
20260503222005 19 226 9.7 22.5 0.00 0.00 0.00 39 1012.8
20260503221504 19 225 11.3 27.4 0.00 0.00 0.00 39 1013.1
20260503221004 19 224 14.5 27.4 0.00 0.00 0.00 39 1013.1
20260503220504 19 221 14.5 27.4 0.00 0.00 0.00 38 1012.9
20260503220004 19 217 12.9 27.4 0.00 0.00 0.00 38 1013.0
20260503215504 20 213 11.3 24.1 0.00 0.00 0.00 38 1012.9
20260503215005 20 208 8.0 20.9 0.00 0.00 0.00 38 1013.3
20260503214504 20 207 6.4 16.1 0.00 0.00 0.00 37 1013.7
20260503213505 20 221 9.7 24.1 0.00 0.00 0.00 37 1013.5
20260503213004 19 218 9.7 25.7 0.00 0.00 0.00 37 1013.8
20260503212504 19 214 6.4 25.7 0.00 0.00 0.00 36 1013.9
20260503212005 19 217 8.0 27.4 0.00 0.00 0.00 37 1013.9
20260503211504 19 223 12.9 29.0 0.00 0.00 0.00 36 1014.2
20260503210504 19 223 11.3 30.6 0.00 0.00 0.00 36 1013.8
20260503210005 19 225 14.5 30.6 0.00 0.00 0.00 36 1013.7
20260503205504 19 224 14.5 29.0 0.00 0.00 0.00 35 1013.7
20260503204504 19 220 9.7 32.2 0.00 0.00 0.00 35 1014.1
20260503203504 19 223 12.9 29.0 0.00 0.00 0.00 36 1014.3
20260503203005 19 228 9.7 27.4 0.00 0.00 0.00 35 1014.2
20260503202504 19 225 3.2 27.4 0.00 0.00 0.00 36 1014.4
20260503202005 19 200 3.2 17.7 0.00 0.00 0.00 36 1014.5
20260503201503 19 207 4.8 17.7 0.00 0.00 0.00 36 1014.6
20260503201004 18 215 6.4 25.7 0.00 0.00 0.00 37 1014.6
20260503194504 18 193 4.8 24.1 0.00 0.00 0.00 37 1015.1
20260503194005 18 206 8.0 17.7 0.00 0.00 0.00 36 1015.4
20260503193504 18 216 6.4 19.3 0.00 0.00 0.00 35 1015.5
20260503193005 18 218 8.0 22.5 0.00 0.00 0.00 36 1015.7
20260503192504 18 219 9.7 22.5 0.00 0.00 0.00 36 1015.7
20260503191503 18 228 1.6 19.3 0.00 0.00 0.00 37 1015.9
20260503191005 18 214 0.0 8.0 0.00 0.00 0.00 36 1015.9
20260503190504 18 191 1.6 9.7 0.00 0.00 0.00 36 1016.1
20260503190005 18 221 3.2 16.1 0.00 0.00 0.00 37 1016.2
20260503184504 17 214 6.4 20.9 0.00 0.00 0.00 36 1016.5
20260503184004 18 212 3.2 16.1 0.00 0.00 0.00 36 1016.4
20260503183504 17 217 6.4 20.9 0.00 0.00 0.00 36 1016.5
20260503183005 17 213 6.4 24.1 0.00 0.00 0.00 37 1016.7
20260503182005 17 222 3.2 19.3 0.00 0.00 0.00 37 1016.9
20260503181505 17 214 6.4 20.9 0.00 0.00 0.00 36 1016.9
20260503181004 17 219 6.4 20.9 0.00 0.00 0.00 36 1016.7
20260503180005 17 206 4.8 19.3 0.00 0.00 0.00 36 1017.1
20260503174504 17 203 3.2 20.9 0.00 0.00 0.00 36 1017.5
20260503174004 17 217 8.0 20.9 0.00 0.00 0.00 36 1017.4
20260503173504 17 222 8.0 25.7 0.00 0.00 0.00 37 1017.6
20260503173004 17 222 6.4 25.7 0.00 0.00 0.00 37 1017.5
20260503171004 17 224 9.7 24.1 0.00 0.00 0.00 38 1017.9
20260503170504 16 221 8.0 19.3 0.00 0.00 0.00 39 1018.1
20260503151004 14 215 4.8 16.1 0.00 0.00 0.00 44 1019.4
20260503131005 9 0 0.0 0.0 0.00 0.00 0.00 67 1019.4
20260503130504 9 0 0.0 0.0 0.00 0.00 0.00 68 1019.5
20260503110505 4 0 0.0 0.0 0.00 0.00 0.00 82 1018.8
20260503081005 5 0 0.0 0.0 0.00 0.00 0.00 77 1018.1
20260503080504 5 0 0.0 0.0 0.00 0.00 0.00 77 1018.1
20260503072505 6 0 0.0 0.0 0.00 0.00 0.00 74 1017.9
20260503072006 6 0 0.0 0.0 0.00 0.00 0.00 73 1017.9
20260503071505 6 0 0.0 0.0 0.00 0.00 0.00 73 1017.9
20260503071005 6 0 0.0 0.0 0.00 0.00 0.00 72 1018.0
20260503070505 6 0 0.0 0.0 0.00 0.00 0.00 72 1017.9
20260503055006 8 0 0.0 0.0 0.00 0.00 0.00 64 1018.1
20260503054505 8 0 0.0 0.0 0.00 0.00 0.00 64 1018.1
20260503054005 8 0 0.0 0.0 0.00 0.00 0.00 63 1018.1
20260503053505 8 0 0.0 0.0 0.00 0.00 0.00 62 1018.2
20260503053005 8 0 0.0 0.0 0.00 0.00 0.00 61 1018.1
20260503052504 8 0 0.0 0.0 0.00 0.00 0.00 61 1018.1
20260503052005 8 0 0.0 0.0 0.00 0.00 0.00 60 1018.1
20260503051505 8 0 0.0 0.0 0.00 0.00 0.00 59 1018.2
20260503051005 8 0 0.0 0.0 0.00 0.00 0.00 59 1018.1
20260503050006 9 0 0.0 0.0 0.00 0.00 0.00 57 1018.1
20260503045505 9 0 0.0 0.0 0.00 0.00 0.00 57 1018.1
20260503045006 9 0 0.0 0.0 0.00 0.00 0.00 57 1018.1
20260503044505 9 0 0.0 0.0 0.00 0.00 0.00 56 1018.1
20260503044006 9 0 0.0 0.0 0.00 0.00 0.00 56 1018.1
20260503043505 10 0 0.0 0.0 0.00 0.00 0.00 56 1018.2
20260503043005 10 0 0.0 0.0 0.00 0.00 0.00 55 1018.2
20260503042505 10 0 0.0 0.0 0.00 0.00 0.00 56 1018.3
20260503041505 10 0 0.0 0.0 0.00 0.00 0.00 55 1018.1
20260503041006 10 0 0.0 0.0 0.00 0.00 0.00 55 1018.2
20260503040505 10 0 0.0 0.0 0.00 0.00 0.00 54 1018.2
20260503040006 10 0 0.0 0.0 0.00 0.00 0.00 54 1018.1
20260503035505 10 0 0.0 0.0 0.00 0.00 0.00 53 1018.1
20260503034505 10 0 0.0 0.0 0.00 0.00 0.00 52 1018.1
20260503033505 10 265 0.0 1.6 0.00 0.00 0.00 52 1018.0
20260503033006 11 265 0.0 1.6 0.00 0.00 0.00 51 1018.1
20260503032505 11 0 0.0 0.0 0.00 0.00 0.00 51 1018.1
20260503031504 11 265 1.6 6.4 0.00 0.00 0.00 51 1018.0
20260503031005 11 265 1.6 9.7 0.00 0.00 0.00 51 1017.9
20260503030005 11 267 1.6 8.0 0.00 0.00 0.00 50 1017.9
20260503025005 11 267 1.6 8.0 0.00 0.00 0.00 50 1017.8
20260503024005 11 267 1.6 8.0 0.00 0.00 0.00 49 1017.8
20260503023504 11 267 1.6 6.4 0.00 0.00 0.00 49 1017.7
20260503023005 11 270 1.6 9.7 0.00 0.00 0.00 49 1017.6
20260503022504 11 268 1.6 12.9 0.00 0.00 0.00 48 1017.6
20260503022005 11 270 1.6 12.9 0.00 0.00 0.00 48 1017.5
20260503021504 11 275 1.6 9.7 0.00 0.00 0.00 48 1017.5
20260503021005 12 285 1.6 11.3 0.00 0.00 0.00 49 1017.5
20260503020005 12 311 0.0 11.3 0.00 0.00 0.00 49 1017.2
20260503015505 12 326 0.0 11.3 0.00 0.00 0.00 48 1017.0
20260503015005 12 338 1.6 11.3 0.00 0.00 0.00 48 1017.1
20260503014505 12 332 1.6 11.3 0.00 0.00 0.00 47 1017.0
20260503014005 12 353 1.6 9.7 0.00 0.00 0.00 48 1016.9
20260503013505 12 7 3.2 12.9 0.00 0.00 0.00 48 1016.9
20260503013005 12 353 3.2 12.9 0.00 0.00 0.00 48 1016.8
20260503012005 12 351 0.0 12.9 0.00 0.00 0.00 49 1016.6
20260503011505 12 0 0.0 0.0 0.00 0.00 0.00 50 1016.5
20260503011005 12 0 0.0 0.0 0.00 0.00 0.00 52 1016.4
20260503010505 12 0 0.0 0.0 0.00 0.00 0.00 51 1016.4
20260503010005 12 0 0.0 0.0 0.00 0.00 0.00 51 1016.3
20260503005505 12 0 0.0 0.0 0.00 0.00 0.00 51 1016.2
20260503005005 12 0 0.0 0.0 0.00 0.00 0.00 50 1016.1
20260503004505 13 0 0.0 0.0 0.00 0.00 0.00 50 1016.0
20260503004005 13 0 0.0 0.0 0.00 0.00 0.00 50 1015.9